HDGA4: War Eagle Creek At Hindsville, AR

Data processed at Fri Mar 09 2018 22:39


All information presented herein is the property of the government of the United States of America and may be revised or deleted at any time without prior notice.
Dissemination of this information without the expressed written consent of the Public Affairs Office, Tulsa District U.S. Army Corps of Engineers is strictly prohibited.
These data are gathered electronically and, as presented, have not undergone any form of quality control. These data are not guaranteed to be valid or correct.
Go to home page.
Go to station list.

Downstream station:


Previous Day
Next Day
Current Day
    
SHEF ID:       HDGA4     War Eagle Creek near Hindsville,
STATION TYPE:  

                STAGE  RIV-FLOW  BAT-LOAD
                   ft       cfs      volt
              Ccp-Rev   Ccp-Rev   Ccp-Rev
(US/Central)
03/07 00:00      2.60       453     12.71
03/07 01:00      2.59       450     12.71
03/07 02:00      2.58       446     12.65
03/07 03:00      2.57       442     12.65
03/07 04:00      2.56       438     12.65
03/07 05:00      2.54       431     12.65
03/07 06:00      2.55       435     12.60
03/07 07:00      2.54       431     12.60
03/07 08:00      2.52       423     12.60
03/07 09:00      2.52       423     12.65
03/07 10:00      2.51       420     12.65
03/07 11:00      2.50       416     12.77
03/07 12:00      2.49       413     13.18
03/07 13:00      2.49       413     13.30
03/07 14:00      2.48       409     13.24
03/07 15:00      2.47       405     13.24
03/07 16:00      2.46       402     13.07
03/07 17:00      2.45       398     12.95
03/07 18:00      2.44       395     12.89
03/07 19:00      2.44       395     12.89
03/07 20:00      2.44       395     12.83
03/07 21:00      2.43       391     12.83
03/07 22:00      2.43       391     12.77
03/07 23:00      2.42       388     12.71